Beale Air Force Base, CA

1:52 PM PST on February 08, 2016 (GMT -0800)
Beale Air Force Base

Weather History for KBAB - November, 2012

Change the Weather History Date:

Sunday, November 4, 2012

  Actual Average Record
Temperature  
Mean Temperature 61 °F -  
Max Temperature 73 °F 66 °F 82 °F (1997)
Min Temperature 49 °F 45 °F 33 °F (2011)
Degree Days  
Heating Degree Days 4    
Growing Degree Days 11 (Base 50)    
Moisture  
Dew Point 52 °F    
Average Humidity 79    
Maximum Humidity 100    
Minimum Humidity 47    
Precipitation  
Precipitation 0.00 in - - ()
Sea Level Pressure  
Sea Level Pressure 30.18 in    
Wind  
Wind Speed 1 mph (SE)    
Max Wind Speed 7 mph    
Max Gust Speed -    
Visibility 2 miles    
Events Fog    
Averages and records for this station are not official NWS values.
T = Trace of Precipitation, MM = Missing Value Source: NWS Daily Summary

Daily Weather History Graph

Daily Weather History Graph

Search for Another Location

Airport or City:

Trip Planner

Search our weather history database for the weather conditions in past years. The results will help you decide how hot, cold, wet, or windy it might be!

Date:

Astronomy

Nov. 04, 2012 Rise Set
Actual Time 6:37 AM PST 5:00 PM PST
Civil Twilight 6:09 AM PST 5:28 PM PST
Nautical Twilight 5:37 AM PST 6:00 PM PST
Astronomical Twilight 5:06 AM PST 6:31 PM PST
Moon 9:44 PM PST (11/4) 11:23 AM PST (11/4)
Length of Visible Light 11h 19m
Length of Day
10h 23m
Waning Gibbous, 71% of the Moon is Illuminated
Nov 4
Waning Gibbous
Nov 6
Last Quarter
Nov 13
New
Nov 20
First Quarter
Nov 28
Full

Hourly Weather History & Observations

Time (PST) Temp. Dew Point Humidity Pressure Visibility Wind Dir Wind Speed Gust Speed Precip Events Conditions
12:13 AM 53.6 °F 51.8 °F 94% 30.14 in 2.5 mi Calm Calm - N/A   Clear
12:21 AM 51.8 °F 51.8 °F 100% 30.14 in 2.0 mi Calm Calm - N/A   Clear
12:22 AM 51.8 °F 51.8 °F 100% 30.14 in 1.8 mi Calm Calm - N/A   Clear
12:55 AM 50.9 °F 50.5 °F 99% 30.15 in 1.5 mi Calm Calm - N/A   Clear
1:04 AM 51.8 °F 50.0 °F 94% 30.15 in 2.0 mi Calm Calm - N/A   Clear
1:05 AM 51.8 °F 51.8 °F 100% 30.15 in 1.8 mi Calm Calm - N/A   Clear
1:19 AM 51.8 °F 51.8 °F 100% 30.15 in 2.0 mi Calm Calm - N/A   Clear
1:22 AM 51.8 °F 51.8 °F 100% 30.15 in 1.8 mi Calm Calm - N/A   Clear
1:32 AM 51.8 °F 51.8 °F 100% 30.15 in 2.0 mi Calm Calm - N/A   Clear
1:33 AM 51.8 °F 51.8 °F 100% 30.15 in 2.0 mi Calm Calm - N/A   Clear
1:37 AM 51.8 °F 51.8 °F 100% 30.15 in 3.0 mi Calm Calm - N/A   Clear
1:41 AM 51.8 °F 51.8 °F 100% 30.15 in 2.5 mi ESE 3.5 mph - N/A   Clear
1:46 AM 51.8 °F 51.8 °F 100% 30.15 in 2.5 mi ESE 3.5 mph - N/A   Clear
1:55 AM 52.9 °F 52.5 °F 99% 30.15 in 2.5 mi ESE 3.5 mph - N/A   Clear
1:59 AM 53.6 °F 53.6 °F 100% 30.15 in 3.0 mi East 3.5 mph - N/A   Clear
1:03 AM 53.6 °F 51.8 °F 94% 30.15 in 3.0 mi East 3.5 mph - N/A   Clear
1:28 AM 53.6 °F 51.8 °F 94% 30.16 in 3.0 mi ESE 3.5 mph - N/A   Clear
1:29 AM 53.6 °F 50.0 °F 88% 30.16 in 3.0 mi ESE 3.5 mph - N/A   Clear
1:55 AM 53.2 °F 51.3 °F 93% 30.15 in 3.0 mi East 4.6 mph - N/A   Clear
2:09 AM 53.6 °F 51.8 °F 94% 30.15 in 2.5 mi East 4.6 mph - N/A   Clear
2:11 AM 53.6 °F 51.8 °F 94% 30.15 in 2.5 mi ENE 4.6 mph - N/A   Clear
2:15 AM 51.8 °F 51.8 °F 100% 30.15 in 2.5 mi ENE 3.5 mph - N/A   Clear
2:25 AM 51.8 °F 51.8 °F 100% 30.15 in 2.5 mi ENE 4.6 mph - N/A   Clear
2:40 AM 51.8 °F 51.8 °F 100% 30.15 in 2.5 mi ENE 4.6 mph - N/A   Clear
2:43 AM 51.8 °F 51.8 °F 100% 30.15 in 3.0 mi East 4.6 mph - N/A   Clear
2:50 AM 53.6 °F 51.8 °F 94% 30.15 in 3.0 mi East 4.6 mph - N/A   Light Drizzle
2:54 AM 53.6 °F 51.8 °F 94% 30.15 in 3.0 mi East 4.6 mph - N/A   Light Drizzle
2:55 AM 52.9 °F 51.1 °F 94% 30.15 in 3.0 mi East 4.6 mph - 0.00 in   Light Drizzle
2:56 AM 53.6 °F 51.8 °F 94% 30.15 in 3.0 mi East 4.6 mph - N/A   Light Drizzle
3:00 AM 53.6 °F 51.8 °F 94% 30.14 in 3.0 mi East 3.5 mph - N/A   Clear
3:28 AM 53.6 °F 50.0 °F 88% 30.14 in 3.0 mi East 6.9 mph - N/A   Clear
3:34 AM 51.8 °F 50.0 °F 94% 30.15 in 3.0 mi East 5.8 mph - N/A   Clear
3:42 AM 51.8 °F 50.0 °F 94% 30.15 in 2.5 mi Calm Calm - N/A   Clear
3:46 AM 50.0 °F 50.0 °F 100% 30.15 in 1.8 mi Calm Calm - N/A   Clear
3:49 AM 50.0 °F 50.0 °F 100% 30.15 in 1.5 mi Calm Calm - N/A   Clear
3:55 AM 49.5 °F 49.1 °F 99% 30.15 in 1.5 mi Calm Calm - 0.00 in   Clear
4:30 AM 50.0 °F 50.0 °F 100% 30.17 in 2.0 mi Calm Calm - N/A   Clear
4:46 AM 50.0 °F 50.0 °F 100% 30.17 in 2.0 mi Calm Calm - N/A   Clear
4:52 AM 50.0 °F 50.0 °F 100% 30.17 in 3.0 mi Calm Calm - N/A   Clear
4:55 AM 49.6 °F 49.5 °F 99% 30.17 in 3.0 mi Calm Calm - N/A   Clear
4:59 AM 50.0 °F 50.0 °F 100% 30.17 in 2.5 mi Calm Calm - N/A   Clear
5:01 AM 50.0 °F 48.2 °F 94% 30.17 in 2.5 mi Calm Calm - N/A   Clear
5:08 AM 50.0 °F 48.2 °F 94% 30.17 in 3.0 mi Calm Calm - N/A   Clear
5:13 AM 50.0 °F 50.0 °F 100% 30.17 in 2.5 mi Calm Calm - N/A   Clear
5:17 AM 50.0 °F 50.0 °F 100% 30.17 in 3.0 mi Calm Calm - N/A   Clear
5:33 AM 50.0 °F 50.0 °F 100% 30.18 in 2.5 mi Calm Calm - N/A   Clear
5:34 AM 50.0 °F 50.0 °F 100% 30.18 in 2.5 mi Calm Calm - N/A   Clear
5:42 AM 50.0 °F 50.0 °F 100% 30.18 in 2.5 mi Calm Calm - N/A   Clear
5:55 AM 51.1 °F 50.7 °F 99% 30.18 in 2.5 mi Calm Calm - N/A   Clear
6:01 AM 50.0 °F 50.0 °F 100% 30.18 in 2.0 mi Calm Calm - N/A   Clear
6:12 AM 50.0 °F 50.0 °F 100% 30.18 in 1.8 mi Calm Calm - N/A   Clear
6:18 AM 50.0 °F 50.0 °F 100% 30.18 in 1.2 mi Calm Calm - N/A   Clear
6:20 AM 50.0 °F 50.0 °F 100% 30.19 in 1.5 mi Calm Calm - N/A   Clear
6:23 AM 50.0 °F 50.0 °F 100% 30.19 in 1.8 mi Calm Calm - N/A   Clear
6:27 AM 50.0 °F 50.0 °F 100% 30.19 in 2.0 mi Calm Calm - N/A   Clear
6:55 AM 49.5 °F 49.3 °F 99% 30.19 in 2.0 mi ESE 4.6 mph - N/A   Clear
6:56 AM 50.0 °F 50.0 °F 100% 30.19 in 1.8 mi ESE 4.6 mph - N/A   Clear
7:01 AM 50.0 °F 50.0 °F 100% 30.19 in 1.2 mi ESE 3.5 mph - N/A   Clear
7:09 AM 50.0 °F 50.0 °F 100% 30.20 in 1.5 mi East 3.5 mph - N/A   Clear
7:14 AM 50.0 °F 50.0 °F 100% 30.20 in 2.0 mi East 3.5 mph - N/A   Clear
7:19 AM 51.8 °F 50.0 °F 94% 30.20 in 1.8 mi Calm Calm - N/A   Clear
7:25 AM 51.8 °F 51.8 °F 100% 30.20 in 1.2 mi Calm Calm - N/A   Clear
7:27 AM 51.8 °F 51.8 °F 100% 30.20 in 1.0 mi Calm Calm - N/A   Clear
7:30 AM 51.8 °F 51.8 °F 100% 30.20 in 0.8 mi Calm Calm - N/A   Clear
7:33 AM 51.8 °F 51.8 °F 100% 30.20 in 1.0 mi Calm Calm - N/A   Clear
7:37 AM 51.8 °F 51.8 °F 100% 30.21 in 1.2 mi Calm Calm - N/A   Clear
7:38 AM 51.8 °F 51.8 °F 100% 30.21 in 1.5 mi Calm Calm - N/A   Clear
7:41 AM 51.8 °F 51.8 °F 100% 30.21 in 2.0 mi Calm Calm - N/A   Clear
7:49 AM 53.6 °F 53.6 °F 100% 30.21 in 1.8 mi Calm Calm - N/A   Clear
7:55 AM 53.2 °F 52.9 °F 99% 30.21 in 1.5 mi Calm Calm - N/A   Clear
8:01 AM 53.6 °F 53.6 °F 100% 30.21 in 1.2 mi Calm Calm - N/A   Clear
8:12 AM 55.4 °F 53.6 °F 94% 30.22 in 1.5 mi Calm Calm - N/A   Clear
8:19 AM 55.4 °F 53.6 °F 94% 30.22 in 2.0 mi Calm Calm - N/A   Clear
8:25 AM 55.4 °F 51.8 °F 88% 30.22 in 3.0 mi Calm Calm - N/A   Clear
8:35 AM 57.2 °F 53.6 °F 88% 30.22 in 2.5 mi Calm Calm - N/A   Clear
8:36 AM 57.2 °F 53.6 °F 88% 30.22 in 3.0 mi Calm Calm - N/A   Clear
8:47 AM 59.0 °F 53.6 °F 82% 30.22 in 2.5 mi Calm Calm - N/A   Haze
8:55 AM 59.4 °F 52.2 °F 77% 30.22 in 3.0 mi Calm Calm - N/A   Haze
9:07 AM 60.8 °F 53.6 °F 77% 30.22 in 2.5 mi Calm Calm - N/A   Haze
9:13 AM 60.8 °F 53.6 °F 77% 30.23 in 3.0 mi Calm Calm - N/A   Haze
9:39 AM 62.6 °F 51.8 °F 68% 30.23 in 2.5 mi Calm Calm - N/A   Haze
9:41 AM 62.6 °F 51.8 °F 68% 30.23 in 3.0 mi Calm Calm - N/A   Haze
9:42 AM 62.6 °F 51.8 °F 68% 30.22 in 2.5 mi Calm Calm - N/A   Haze
9:48 AM 62.6 °F 51.8 °F 68% 30.22 in 3.0 mi Calm Calm - N/A   Haze
9:55 AM 63.3 °F 52.2 °F 67% 30.22 in 3.0 mi Calm Calm - N/A   Haze
10:17 AM 64.4 °F 51.8 °F 64% 30.22 in 2.5 mi Calm Calm - N/A   Haze
10:23 AM 66.2 °F 51.8 °F 60% 30.22 in 1.8 mi South 3.5 mph - N/A   Haze
10:27 AM 66.2 °F 51.8 °F 60% 30.22 in 1.2 mi Variable 3.5 mph - N/A   Haze
10:32 AM 66.2 °F 51.8 °F 60% 30.22 in 1.0 mi SSW 3.5 mph - N/A   Haze
10:34 AM 66.2 °F 51.8 °F 60% 30.22 in 0.8 mi Calm Calm - N/A   Haze
10:44 AM 66.2 °F 51.8 °F 60% 30.22 in 1.0 mi Calm Calm - N/A   Haze
10:45 AM 66.2 °F 51.8 °F 60% 30.21 in 1.2 mi Calm Calm - N/A   Haze
10:47 AM 66.2 °F 51.8 °F 60% 30.21 in 1.5 mi Calm Calm - N/A   Haze
10:55 AM 67.6 °F 52.7 °F 59% 30.21 in 1.5 mi Calm Calm - N/A   Haze
11:02 AM 68.0 °F 53.6 °F 60% 30.21 in 1.2 mi SSW 3.5 mph - N/A   Haze
11:03 AM 68.0 °F 53.6 °F 60% 30.21 in 1.0 mi SW 3.5 mph - N/A   Haze
11:07 AM 68.0 °F 53.6 °F 60% 30.21 in 0.8 mi SSW 3.5 mph - N/A   Haze
11:10 AM 68.0 °F 53.6 °F 60% 30.21 in 0.8 mi Calm Calm - N/A   Haze
11:11 AM 68.0 °F 53.6 °F 60% 30.21 in 0.5 mi Calm Calm - N/A   Haze
11:15 AM 68.0 °F 53.6 °F 60% 30.21 in 0.5 mi SSW 3.5 mph - N/A   Haze
11:19 AM 68.0 °F 53.6 °F 60% 30.21 in 0.8 mi Calm Calm - N/A   Haze
11:20 AM 68.0 °F 53.6 °F 60% 30.21 in 0.8 mi Calm Calm - N/A   Haze
11:30 AM 69.8 °F 53.6 °F 56% 30.20 in 0.8 mi South 3.5 mph - N/A   Haze
11:31 AM 69.8 °F 53.6 °F 56% 30.20 in 0.8 mi SSE 3.5 mph - N/A   Haze
11:32 AM 69.8 °F 51.8 °F 53% 30.20 in 0.8 mi Calm Calm - N/A   Haze
11:33 AM 69.8 °F 51.8 °F 53% 30.20 in 0.8 mi Calm Calm - N/A   Haze
11:44 AM 69.8 °F 53.6 °F 56% 30.20 in 0.8 mi South 3.5 mph - N/A   Haze
11:45 AM 69.8 °F 53.6 °F 56% 30.20 in 0.8 mi South 4.6 mph - N/A   Haze
11:46 AM 69.8 °F 53.6 °F 56% 30.20 in 0.8 mi South 5.8 mph - N/A   Haze
11:48 AM 69.8 °F 53.6 °F 56% 30.20 in 1.0 mi SSW 3.5 mph - N/A   Haze
11:54 AM 69.8 °F 51.8 °F 53% 30.19 in 1.2 mi South 3.5 mph - N/A   Haze
11:55 AM 70.2 °F 52.7 °F 54% 30.19 in 1.2 mi SSW 3.5 mph - N/A   Haze
11:59 AM 69.8 °F 51.8 °F 53% 30.19 in 1.5 mi South 4.6 mph - N/A   Haze
12:16 PM 71.6 °F 51.8 °F 50% 30.19 in 1.2 mi SSW 4.6 mph - N/A   Haze
12:18 PM 71.6 °F 51.8 °F 50% 30.19 in 1.0 mi SW 3.5 mph - N/A   Haze
12:21 PM 71.6 °F 51.8 °F 50% 30.19 in 0.8 mi Calm Calm - N/A   Haze
12:24 PM 71.6 °F 51.8 °F 50% 30.19 in 0.8 mi Calm Calm - N/A   Haze
12:25 PM 71.6 °F 51.8 °F 50% 30.19 in 0.5 mi Calm Calm - N/A   Haze
12:29 PM 71.6 °F 51.8 °F 50% 30.19 in 0.5 mi West 4.6 mph - N/A   Haze
12:34 PM 69.8 °F 51.8 °F 53% 30.18 in 0.2 mi SW 4.6 mph - N/A   Haze
12:36 PM 69.8 °F 51.8 °F 53% 30.18 in 0.2 mi WSW 5.8 mph - N/A   Haze
12:40 PM 69.8 °F 53.6 °F 56% 30.18 in 0.2 mi WSW 5.8 mph - N/A   Haze
12:55 PM 71.4 °F 52.5 °F 51% 30.17 in 0.2 mi Calm Calm - N/A   Haze
1:12 PM 71.6 °F 51.8 °F 50% 30.17 in 0.2 mi Calm Calm - N/A   Haze
1:13 PM 71.6 °F 51.8 °F 50% 30.17 in 0.2 mi Calm Calm - N/A   Haze
1:18 PM 73.4 °F 53.6 °F 50% 30.17 in 0.5 mi Calm Calm - N/A   Haze
1:22 PM 71.6 °F 53.6 °F 53% 30.17 in 0.2 mi Calm Calm - N/A   Haze
1:25 PM 71.6 °F 51.8 °F 50% 30.17 in 0.2 mi WNW 4.6 mph - N/A   Haze
1:26 PM 71.6 °F 51.8 °F 50% 30.17 in 0.2 mi WNW 3.5 mph - N/A   Haze
1:27 PM 71.6 °F 51.8 °F 50% 30.17 in 0.2 mi NW 3.5 mph - N/A   Haze
1:45 PM 71.6 °F 51.8 °F 50% 30.17 in 0.2 mi Calm Calm - N/A   Haze
1:46 PM 71.6 °F 51.8 °F 50% 30.17 in 0.2 mi Calm Calm - N/A   Haze
1:55 PM 72.7 °F 52.5 °F 49% 30.16 in 0.2 mi Calm Calm - N/A   Haze
2:55 PM 72.7 °F 52.5 °F 49% 30.16 in 0.2 mi Calm Calm - N/A   Haze
3:24 PM 73.4 °F 51.8 °F 47% 30.15 in 0.2 mi Calm Calm - N/A   Haze
3:51 PM 73.4 °F 51.8 °F 47% 30.14 in 0.2 mi Calm Calm - N/A   Haze
3:55 PM 73.2 °F 52.5 °F 48% 30.14 in 0.2 mi Calm Calm - N/A   Haze
4:24 PM 73.4 °F 53.6 °F 50% 30.14 in 0.2 mi Calm Calm - N/A   Haze
4:31 PM 71.6 °F 53.6 °F 53% 30.14 in 0.2 mi Calm Calm - N/A   Haze
4:41 PM 71.6 °F 53.6 °F 53% 30.14 in 0.2 mi Calm Calm - N/A   Haze
4:45 PM 69.8 °F 53.6 °F 56% 30.14 in 0.2 mi Calm Calm - N/A   Haze
4:55 PM 69.4 °F 54.1 °F 58% 30.14 in 0.2 mi Calm Calm - N/A   Haze
5:24 PM 66.2 °F 53.6 °F 64% 30.14 in 0.2 mi Calm Calm - N/A   Haze
5:55 PM 65.7 °F 53.2 °F 64% 30.14 in 0.2 mi Calm Calm - N/A   Haze
6:10 PM 66.2 °F 53.6 °F 64% 30.15 in 0.5 mi Calm Calm - N/A   Haze
6:55 PM 61.0 °F 54.5 °F 79% 30.15 in 0.5 mi ENE 3.5 mph - N/A   Haze
7:55 PM 60.6 °F 53.8 °F 78% 30.14 in 0.5 mi Calm Calm - N/A   Haze
8:55 PM 55.8 °F 53.1 °F 91% 30.16 in 0.5 mi Calm Calm - N/A Fog Fog
9:55 PM 57.0 °F 53.2 °F 87% 30.16 in 0.5 mi Calm Calm - N/A Fog Fog
10:55 PM 56.1 °F 53.2 °F 90% 30.16 in 0.5 mi Calm Calm - N/A Fog Fog